Hovedside
METAR-TAF:

METAR-TAF

Lufthavner :

Stampede Pass, Washington, USA

breddegrad: 47-16-36N, lengdegrad: 121-20-14W, høyde over havet: 1207 m

Gjeldene værobservasjon

Denne rapporten ble laget for 33 minutter siden, klokken 10:56 UTC
Vind 4 kt fra skiftende retning
Temperatur 3°C
Luftfuktighet 87%
Trykk 1011 hPa
Sikt: 16.1 km
Skyfri himmel

METAR: KSMP 221056Z AUTO VRB04KT 10SM CLR 03/01 A2985 RMK AO2 SLP105 T00330006

Tid: 04:29 (11:29 UTC)


TAF: fraværende

Værobservasjoner og værvarsel for over 4000 flyplasser (METAR- og TAF-rapporter).

Tilgjengelige stasjoner er representert av de røde og gule prikkene på kartet.

Hold musepekeren over prikken for å se navnet på stasjonen.

Klikk så for å se værobservasjoner og -varsler.

For å forandre kartet kan du klikke på den grønne knappen med svart kryss for å zoome inn, på den grønne knappen med strek for å zoome ut, eller på de grønne pilene for å se tilstøtende kart.


METAR-TAF: